AG1T-1 Weather Reports


time (UTC)temp
C
wind
direction
speed
KPH
gust
KPH
rain 1hr
cm
rain 24hr
cm
rain mn
cm
humidity
%
barometer
mb
20260906234003 26 0 0.0 1.6 0.00 0.00 0.00 34 1015.9
20260906233003 26 0 0.0 1.6 0.00 0.00 0.00 34 1016.0
20260906232003 26 215 1.6 6.4 0.00 0.00 0.00 33 1016.1
20260906231003 26 215 1.6 9.7 0.00 0.00 0.00 33 1016.3
20260906230004 26 219 3.2 11.3 0.00 0.00 0.00 32 1016.4
20260906225003 26 222 3.2 17.7 0.00 0.00 0.00 31 1016.5
20260906224003 27 238 3.2 11.3 0.00 0.00 0.00 32 1016.6
20260906223003 27 231 3.2 9.7 0.00 0.00 0.00 31 1016.4
20260906222003 27 200 6.4 12.9 0.00 0.00 0.00 29 1016.6
20260906221003 27 203 4.8 14.5 0.00 0.00 0.00 30 1016.7
20260906220003 27 233 6.4 16.1 0.00 0.00 0.00 30 1016.6
20260906215003 27 211 8.0 17.7 0.00 0.00 0.00 30 1016.7
20260906214003 28 222 8.0 19.3 0.00 0.00 0.00 30 1016.6
20260906213003 27 216 4.8 14.5 0.00 0.00 0.00 31 1016.6
20260906212003 27 229 4.8 16.1 0.00 0.00 0.00 30 1016.8
20260906211003 28 190 6.4 16.1 0.00 0.00 0.00 29 1016.9
20260906210003 28 146 6.4 17.7 0.00 0.00 0.00 29 1016.8
20260906205003 28 192 4.8 14.5 0.00 0.00 0.00 28 1017.1
20260906204003 27 186 3.2 11.3 0.00 0.00 0.00 28 1017.1
20260906203003 27 203 4.8 14.5 0.00 0.00 0.00 28 1017.2
20260906202003 27 224 4.8 14.5 0.00 0.00 0.00 29 1017.5
20260906201003 27 223 4.8 12.9 0.00 0.00 0.00 29 1017.8
20260906200003 26 208 6.4 20.9 0.00 0.00 0.00 30 1018.0
20260906195003 26 229 4.8 20.9 0.00 0.00 0.00 30 1018.1
20260906194003 26 230 6.4 16.1 0.00 0.00 0.00 29 1018.3
20260906193003 26 227 6.4 19.3 0.00 0.00 0.00 28 1018.1
20260906192003 27 219 6.4 19.3 0.00 0.00 0.00 28 1018.1
20260906191003 27 216 6.4 17.7 0.00 0.00 0.00 27 1018.3
20260906190003 27 216 8.0 19.3 0.00 0.00 0.00 27 1018.4
20260906185003 27 223 6.4 16.1 0.00 0.00 0.00 27 1018.5
20260906184003 27 223 6.4 20.9 0.00 0.00 0.00 27 1018.6
20260906183003 27 213 8.0 20.9 0.00 0.00 0.00 28 1018.7
20260906182003 27 208 6.4 14.5 0.00 0.00 0.00 28 1018.9
20260906181003 27 228 6.4 17.7 0.00 0.00 0.00 27 1019.0
20260906180003 26 236 6.4 19.3 0.00 0.00 0.00 27 1019.2
20260906175003 26 232 8.0 17.7 0.00 0.00 0.00 28 1019.4
20260906174003 26 239 11.3 27.4 0.00 0.00 0.00 26 1019.7
20260906173003 26 222 9.7 25.7 0.00 0.00 0.00 26 1019.8
20260906172003 26 208 8.0 24.1 0.00 0.00 0.00 27 1019.7
20260906171003 26 224 8.0 33.8 0.00 0.00 0.00 27 1019.8
20260906170003 26 218 9.7 24.1 0.00 0.00 0.00 27 1019.9
20260906165003 25 220 8.0 25.7 0.00 0.00 0.00 28 1020.0
20260906164003 25 226 8.0 19.3 0.00 0.00 0.00 29 1019.9
20260906163003 25 226 6.4 16.1 0.00 0.00 0.00 30 1020.0
20260906162003 25 224 4.8 17.7 0.00 0.00 0.00 32 1020.0
20260906161003 26 231 1.6 16.1 0.00 0.00 0.00 31 1020.2
20260906160003 25 0 0.0 3.2 0.00 0.00 0.00 34 1020.2
20260906155003 23 0 0.0 0.0 0.00 0.00 0.00 38 1020.3
20260906154003 22 0 0.0 0.0 0.00 0.00 0.00 40 1020.4
20260906153003 21 0 0.0 0.0 0.00 0.00 0.00 44 1020.5
20260906152003 20 0 0.0 4.8 0.00 0.00 0.00 46 1020.3
20260906151003 18 0 0.0 4.8 0.00 0.00 0.00 49 1020.2
20260906150003 17 330 1.6 6.4 0.00 0.00 0.00 50 1020.2
20260906145003 17 328 3.2 9.7 0.00 0.00 0.00 50 1020.3
20260906144003 16 327 1.6 6.4 0.00 0.00 0.00 52 1020.1
20260906143003 15 333 4.8 9.7 0.00 0.00 0.00 53 1020.1
20260906142003 14 39 1.6 6.4 0.00 0.00 0.00 55 1020.1
20260906141003 13 0 0.0 0.0 0.00 0.00 0.00 55 1020.0
20260906140003 13 0 0.0 0.0 0.00 0.00 0.00 55 1019.9
20260906135003 13 0 0.0 0.0 0.00 0.00 0.00 55 1019.8
20260906134003 14 0 0.0 1.6 0.00 0.00 0.00 50 1019.7
20260906133003 16 0 0.0 4.8 0.00 0.00 0.00 44 1019.6
20260906132003 17 139 1.6 9.7 0.00 0.00 0.00 35 1019.5
20260906131003 17 151 4.8 12.9 0.00 0.00 0.00 36 1019.3
20260906130003 17 162 4.8 16.1 0.00 0.00 0.00 35 1019.4
20260906125003 17 156 4.8 12.9 0.00 0.00 0.00 34 1019.4
20260906124003 16 161 3.2 8.0 0.00 0.00 0.00 36 1019.4
20260906123003 17 147 3.2 9.7 0.00 0.00 0.00 36 1019.3
20260906122003 17 149 4.8 14.5 0.00 0.00 0.00 34 1019.2
20260906121003 17 165 4.8 12.9 0.00 0.00 0.00 33 1019.2
20260906120003 18 148 4.8 16.1 0.00 0.00 0.00 32 1019.3
20260906115003 18 149 4.8 11.3 0.00 0.00 0.00 31 1019.2
20260906114003 18 155 4.8 12.9 0.00 0.00 0.00 31 1019.2
20260906113003 19 155 3.2 8.0 0.00 0.00 0.00 29 1019.2
20260906112003 20 140 4.8 11.3 0.00 0.00 0.00 28 1019.2
20260906111003 20 141 4.8 12.9 0.00 0.00 0.00 29 1019.2
20260906110003 20 154 1.6 9.7 0.00 0.00 0.00 29 1019.2
20260906105003 20 131 3.2 11.3 0.00 0.00 0.00 28 1019.1
20260906104003 20 135 3.2 11.3 0.00 0.00 0.00 28 1019.0
20260906103003 20 140 4.8 14.5 0.00 0.00 0.00 28 1019.0
20260906102003 20 127 4.8 16.1 0.00 0.00 0.00 27 1019.0
20260906101003 20 125 4.8 14.5 0.00 0.00 0.00 27 1019.0
20260906100003 20 123 4.8 12.9 0.00 0.00 0.00 28 1019.0
20260906095003 18 124 3.2 12.9 0.00 0.00 0.00 32 1018.8
20260906094003 16 0 0.0 4.8 0.00 0.00 0.00 40 1018.8
20260906093003 17 0 0.0 0.0 0.00 0.00 0.00 40 1018.7
20260906092003 18 131 1.6 14.5 0.00 0.00 0.00 36 1018.7
20260906091003 19 144 1.6 11.3 0.00 0.00 0.00 30 1018.5
20260906090003 20 138 3.2 9.7 0.00 0.00 0.00 29 1018.5
20260906085003 20 136 3.2 12.9 0.00 0.00 0.00 28 1018.3
20260906084003 19 138 1.6 9.7 0.00 0.00 0.00 29 1018.4
20260906083003 20 144 3.2 11.3 0.00 0.00 0.00 30 1018.3
20260906082003 20 152 4.8 9.7 0.00 0.00 0.00 29 1018.4
20260906081003 21 139 4.8 16.1 0.00 0.00 0.00 27 1018.4
20260906080003 21 137 4.8 11.3 0.00 0.00 0.00 27 1018.5
20260906075003 21 134 4.8 12.9 0.00 0.00 0.00 26 1018.5
20260906074003 21 139 4.8 14.5 0.00 0.00 0.00 26 1018.5
20260906073003 21 134 4.8 12.9 0.00 0.00 0.00 27 1018.5
20260906072003 21 138 6.4 16.1 0.00 0.00 0.00 28 1018.5
20260906071003 20 141 4.8 14.5 0.00 0.00 0.00 28 1018.4
20260906070003 20 143 4.8 17.7 0.00 0.00 0.00 29 1018.4
20260906065003 18 130 4.8 11.3 0.00 0.00 0.00 34 1018.3
20260906064003 15 0 0.0 0.0 0.00 0.00 0.00 49 1018.4
20260906063003 15 0 0.0 0.0 0.00 0.00 0.00 53 1018.3
20260906062003 15 0 0.0 0.0 0.00 0.00 0.00 51 1018.3
20260906061003 15 0 0.0 0.0 0.00 0.00 0.00 52 1018.4
20260906060003 15 0 0.0 0.0 0.00 0.00 0.00 51 1018.4
20260906055003 16 0 0.0 0.0 0.00 0.00 0.00 48 1018.3
20260906054003 16 0 0.0 0.0 0.00 0.00 0.00 46 1018.3
20260906053003 16 0 0.0 0.0 0.00 0.00 0.00 44 1018.2
20260906052003 17 0 0.0 1.6 0.00 0.00 0.00 44 1018.2
20260906051003 17 0 0.0 0.0 0.00 0.00 0.00 43 1018.3
20260906050003 17 0 0.0 0.0 0.00 0.00 0.00 41 1018.3
20260906045003 18 0 0.0 0.0 0.00 0.00 0.00 38 1018.2
20260906044003 18 0 0.0 3.2 0.00 0.00 0.00 37 1018.3
20260906043003 19 189 1.6 8.0 0.00 0.00 0.00 36 1018.3
20260906042003 20 185 1.6 11.3 0.00 0.00 0.00 34 1018.2
20260906041003 20 187 1.6 6.4 0.00 0.00 0.00 33 1018.3
20260906040003 20 184 3.2 8.0 0.00 0.00 0.00 33 1018.3
20260906035003 19 164 3.2 9.7 0.00 0.00 0.00 35 1018.2
20260906034003 18 170 3.2 8.0 0.00 0.00 0.00 39 1018.1
20260906033003 19 0 0.0 4.8 0.00 0.00 0.00 40 1018.0
20260906032003 20 0 0.0 4.8 0.00 0.00 0.00 43 1018.0
20260906031003 20 0 0.0 3.2 0.00 0.00 0.00 41 1018.0
20260906030003 20 0 0.0 3.2 0.00 0.00 0.00 39 1017.8
20260906025003 21 0 0.0 4.8 0.00 0.00 0.00 39 1017.8
20260906024003 22 0 0.0 0.0 0.00 0.00 0.00 33 1017.6
20260906023003 22 0 0.0 0.0 0.00 0.00 0.00 32 1017.4
20260906022003 23 0 0.0 0.0 0.00 0.00 0.00 31 1017.4
20260906021003 24 0 0.0 0.0 0.00 0.00 0.00 30 1017.4
20260906020003 25 0 0.0 0.0 0.00 0.00 0.00 31 1017.5
20260906015003 26 0 0.0 0.0 0.00 0.00 0.00 29 1017.6
20260906014003 27 0 0.0 0.0 0.00 0.00 0.00 28 1017.7
20260906013003 28 0 0.0 0.0 0.00 0.00 0.00 27 1017.7
20260906012003 28 0 0.0 0.0 0.00 0.00 0.00 23 1017.8
20260906011003 30 0 0.0 0.0 0.00 0.00 0.00 23 1017.9
20260906010003 29 0 0.0 1.6 0.00 0.00 0.00 19 1018.0
20260906005003 29 0 0.0 6.4 0.00 0.00 0.00 20 1018.0
20260906004003 29 253 1.6 6.4 0.00 0.00 0.00 20 1018.0
20260906003003 29 240 1.6 6.4 0.00 0.00 0.00 20 1017.9
20260906002003 29 225 1.6 9.7 0.00 0.00 0.00 19 1017.9
20260906001003 30 227 1.6 12.9 0.00 0.00 0.00 19 1017.8
20260906000003 30 0 0.0 3.2 0.00 0.00 0.00 19 1017.9
20260905235003 30 246 1.6 8.0 0.00 0.00 0.00 18 1017.9